[[{"header":{"parameterUnit":"m.s-1","parameterCategory":1,"la1":30.2991,"la2":30.254,"lo1":-89.0895,"lo2":-89.0444,"dy":0.0017,"dx":0.0017,"nx":28,"ny":28,"refTime":"2024-04-22T03:00:00:Z","depth":0,"parameterNumber":2,"parameterNumberName":"U-component_of_WINDS"},"data":[0,0,0,0,0,0,0,0,0,0,0,0,0,0,0,0,0,0,0,0,0,0,0,0,0,0,0,0,0,0,0,0,0,0,0,0,0,0,0,0,0,0,0,0,0,0,0,0,0,0,0,0,0,0,0,0,0,0,-1.2758,-1.2758,0,-1.2794,-1.2795,-1.2795,-1.2809,-1.2808,-1.2808,-1.2808,-1.2846,-1.2847,-1.2848,0,0,0,0,0,0,0,0,0,0,0,0,0,-1.2701,-1.2702,-1.2758,-1.2758,-1.2759,-1.2794,-1.2795,-1.2795,-1.2809,-1.2808,-1.2808,-1.2808,-1.2845,-1.2847,-1.2848,0,0,0,0,0,0,0,0,0,0,0,0,0,-1.273,-1.2702,-1.2758,-1.277,-1.2771,-1.2794,-1.2795,-1.2795,-1.2809,-1.2808,-1.2808,-1.2808,-1.2845,-1.2847,-1.2848,-1.2862,0,0,-1.2853,-1.2854,0,0,0,0,0,0,0,0,-1.2728,-1.2732,-1.2767,-1.2769,-1.2771,-1.2797,-1.2788,-1.2818,-1.2809,-1.2794,-1.2808,-1.2808,-1.283,-1.2832,-1.284,-1.2864,-1.2865,-1.2853,-1.2854,-1.2855,-1.2856,0,0,0,0,0,0,0,-1.2726,-1.2731,-1.2772,-1.2768,-1.277,-1.2773,-1.2777,-1.2794,-1.2813,-1.2796,-1.2797,-1.2801,-1.283,-1.2838,-1.2841,-1.2866,-1.2853,-1.2855,-1.2856,-1.2857,-1.2904,-1.2904,0,0,0,0,0,0,-1.2722,-1.2729,-1.2771,-1.2773,-1.2749,-1.2775,-1.2779,-1.2788,-1.2812,-1.2816,-1.2801,-1.2801,-1.2835,-1.2839,-1.2842,-1.286,-1.2855,-1.2857,-1.2858,-1.2904,-1.2904,-1.2905,0,0,0,0,0,0,-1.2721,-1.2726,-1.277,-1.2751,-1.2757,-1.2776,-1.2786,-1.2789,-1.2797,-1.2816,-1.282,-1.2805,-1.2835,-1.284,-1.2857,-1.2862,-1.2857,-1.2859,-1.2904,-1.2904,-1.2904,-1.2896,0,0,0,0,0,0,-1.2719,-1.2725,-1.273,-1.2751,-1.2758,-1.2784,-1.2787,-1.279,-1.28,-1.2801,-1.2821,-1.2825,-1.2836,-1.2855,-1.2859,-1.2864,-1.286,-1.2903,-1.2904,-1.2904,-1.2896,-1.2896,-1.2897,0,0,0,0,0,-1.2717,-1.2727,-1.2731,-1.2736,-1.2765,-1.2784,-1.2788,-1.28,-1.28,-1.2806,-1.2818,-1.2824,-1.2861,-1.2856,-1.2861,-1.2867,-1.2903,-1.2904,-1.2904,-1.2896,-1.2896,-1.2897,0,0,0,0,0,0,-1.2706,-1.273,-1.2734,-1.2751,-1.2765,-1.2786,-1.2793,-1.28,-1.2814,-1.2815,-1.2829,-1.2834,-1.285,-1.286,-1.2855,-1.2882,-1.2882,-1.2884,-1.2875,-1.2875,-1.2875,-1.2872,-1.2862,0,0,0,0,0,-1.2705,-1.2718,-1.2739,-1.2751,-1.2758,-1.2775,-1.2783,-1.2792,-1.2807,-1.2813,-1.2827,-1.2842,-1.2857,-1.2867,-1.2881,-1.2898,-1.2903,-1.2905,-1.2905,-1.2905,-1.2906,-1.2916,-1.2917,-1.2907,-1.2907,-1.2906,0,0,-1.2704,-1.2719,-1.2726,-1.2749,-1.2762,-1.2775,-1.278,-1.2794,-1.2804,-1.2816,-1.2833,-1.2844,-1.2861,-1.2879,-1.2887,-1.2888,-1.291,-1.2905,-1.2905,-1.2906,-1.2916,-1.2917,-1.2918,-1.2907,-1.2907,-1.2907,0,0,-1.2709,-1.2721,-1.2733,-1.2746,-1.2764,-1.2775,-1.2778,-1.2798,-1.2806,-1.2823,-1.2832,-1.2845,-1.287,-1.2883,-1.2893,-1.2903,-1.2909,-1.2908,-1.2908,-1.2918,-1.2918,-1.2919,-1.2923,-1.2924,-1.2909,-1.2909,-1.2909,0,-1.2705,-1.2726,-1.2739,-1.2753,-1.2763,-1.2774,-1.2787,-1.2798,-1.282,-1.2827,-1.2828,-1.286,-1.2873,-1.2893,-1.2896,-1.2903,-1.2907,-1.2905,-1.2917,-1.2918,-1.2919,-1.2923,-1.2924,-1.2908,-1.2908,-1.2909,-1.2909,0,-1.2721,-1.2735,-1.2742,-1.2764,-1.2775,-1.2788,-1.2803,-1.2813,-1.2821,-1.2832,-1.285,-1.2866,-1.2884,-1.289,-1.2897,-1.2911,-1.2911,-1.2914,-1.2915,-1.292,-1.2923,-1.2925,-1.2908,-1.2908,-1.2908,-1.2908,0,0,-1.2719,-1.2747,-1.275,-1.276,-1.2781,-1.2793,-1.2807,-1.2825,-1.2833,-1.2848,-1.286,-1.2882,-1.2885,-1.2896,-1.2905,-1.2914,-1.2922,-1.2916,-1.2917,-1.2916,-1.2939,-1.2936,-1.2937,-1.2926,-1.2926,-1.2927,-1.2937,0,-1.2726,-1.2751,-1.2764,-1.2783,-1.2797,-1.2808,-1.282,-1.2835,-1.2846,-1.2859,-1.2872,-1.2887,-1.289,-1.2897,-1.2905,-1.2919,-1.2926,-1.2918,-1.2937,-1.2938,-1.2932,-1.2939,-1.2936,-1.2946,-1.2939,-1.2939,-1.2939,0,-1.2738,-1.2754,-1.2775,-1.2795,-1.2801,-1.2812,-1.283,-1.2842,-1.2859,-1.2867,-1.2879,-1.2888,-1.2904,-1.2904,-1.2926,-1.292,-1.2929,-1.2937,-1.2937,-1.2939,-1.2938,-1.2941,-1.2949,-1.295,-1.2942,-1.2941,-1.2941,0,-1.2735,-1.2761,-1.2777,-1.2785,-1.2809,-1.2816,-1.2827,-1.2844,-1.2854,-1.287,-1.2877,-1.2894,-1.2904,-1.2917,-1.2931,-1.2929,-1.2951,-1.2952,-1.2958,-1.2958,-1.2962,-1.2961,-1.297,-1.2968,-1.2968,-1.2968,-1.2968,0,-1.2742,-1.2754,-1.2775,-1.2785,-1.28,-1.2814,-1.2828,-1.284,-1.2855,-1.2867,-1.2878,-1.289,-1.2907,-1.2921,-1.2932,-1.2949,-1.2953,-1.296,-1.2962,-1.2959,-1.2958,-1.2964,-1.2964,-1.2968,-1.2968,-1.2968,-1.2968,0,-1.274,-1.2755,-1.2773,-1.2795,-1.28,-1.281,-1.2829,-1.2839,-1.285,-1.2866,-1.2871,-1.2889,-1.2906,-1.2921,-1.2944,-1.2951,-1.2968,-1.2972,-1.2962,-1.2964,-1.2969,-1.2968,-1.2982,-1.2985,-1.2981,-1.2981,-1.2981,0,-1.2744,-1.2754,-1.2776,-1.2785,-1.2795,-1.281,-1.2821,-1.2836,-1.2846,-1.2867,-1.2875,-1.2892,-1.2907,-1.2934,-1.295,-1.2968,-1.2971,-1.2975,-1.2974,-1.297,-1.2971,-1.2971,-1.2972,-1.2975,-1.2975,-1.2975,-1.2975,0,-1.2749,-1.2755,-1.277,-1.2787,-1.2799,-1.2814,-1.2829,-1.2835,-1.2853,-1.2865,-1.2882,-1.2894,-1.2917,-1.2935,-1.2954,-1.2966,-1.2973,-1.2975,-1.2978,-1.2973,-1.2968,-1.2971,-1.2962,-1.2975,-1.2975,-1.2975,-1.2975,-1.2975,-1.275,-1.2759,-1.2776,-1.2792,-1.2805,-1.2819,-1.2829,-1.2842,-1.2857,-1.2877,-1.2885,-1.2903,-1.2921,-1.2948,-1.2959,-1.2973,-1.2975,-1.2978,-1.2979,-1.2979,-1.2979,-1.2966,-1.2977,-1.2977,-1.2977,-1.2977,-1.2977,0,-1.2755,-1.2767,-1.2781,-1.2801,-1.2814,-1.282,-1.2837,-1.2847,-1.2863,-1.2879,-1.2893,-1.2914,-1.2931,-1.2948,-1.2967,-1.2975,-1.2979,-1.298,-1.2979,-1.2981,-1.2976,-1.2973,-1.2976,-1.2976,-1.2976,-1.2976,-1.2976,-1.2976,-1.2759,-1.2775,-1.2784,-1.2807,-1.2819,-1.2836,-1.2845,-1.2858,-1.2871,-1.2893,-1.2907,-1.2918,-1.2935,-1.2955,-1.2971,-1.2976,-1.2982,-1.2981,-1.2987,-1.2982,-1.2982,-1.2982,-1.2978,-1.2983,-1.2983,-1.2991,-1.2991,-1.2991]},{"header":{"parameterUnit":"m.s-1","parameterCategory":1,"la1":30.2991,"la2":30.254,"lo1":-89.0895,"lo2":-89.0444,"dy":0.0017,"dx":0.0017,"nx":28,"ny":28,"refTime":"2024-04-22T03:00:00:Z","depth":0,"parameterNumber":3,"parameterNumberName":"V-component_of_WINDS"},"data":[0,0,0,0,0,0,0,0,0,0,0,0,0,0,0,0,0,0,0,0,0,0,0,0,0,0,0,0,0,0,0,0,0,0,0,0,0,0,0,0,0,0,0,0,0,0,0,0,0,0,0,0,0,0,0,0,0,0,4.1192,4.1192,0,4.1208,4.1208,4.1208,4.1174,4.1173,4.1172,4.1171,4.1185,4.1186,4.1188,0,0,0,0,0,0,0,0,0,0,0,0,0,4.1131,4.1132,4.1192,4.1192,4.1192,4.1208,4.1208,4.1208,4.1175,4.1173,4.1172,4.1171,4.1184,4.1186,4.1188,0,0,0,0,0,0,0,0,0,0,0,0,0,4.1153,4.1132,4.1192,4.1178,4.1176,4.1208,4.1208,4.1208,4.1175,4.1173,4.1172,4.117,4.1184,4.1186,4.1188,4.1233,0,0,4.1194,4.1195,0,0,0,0,0,0,0,0,4.1152,4.1155,4.1179,4.1179,4.1177,4.1187,4.1191,4.1216,4.1175,4.1175,4.1171,4.1169,4.1187,4.1189,4.1195,4.1234,4.1234,4.1194,4.1196,4.1196,4.1197,0,0,0,0,0,0,0,4.115,4.1154,4.1198,4.118,4.1179,4.117,4.1171,4.1196,4.119,4.1175,4.1173,4.1175,4.1186,4.1193,4.1195,4.1234,4.1194,4.1196,4.1197,4.1198,4.1311,4.1312,0,0,0,0,0,0,4.1151,4.1153,4.1198,4.1199,4.116,4.1172,4.1174,4.1186,4.119,4.1189,4.1177,4.1174,4.119,4.1193,4.1195,4.1248,4.1196,4.1198,4.12,4.1309,4.1311,4.1313,0,0,0,0,0,0,4.115,4.1155,4.1197,4.1175,4.118,4.1175,4.1189,4.1187,4.1194,4.1191,4.1189,4.1185,4.1189,4.1193,4.1224,4.1248,4.1199,4.1201,4.1307,4.131,4.1312,4.1354,0,0,0,0,0,0,4.1148,4.1155,4.1172,4.1176,4.1181,4.1226,4.119,4.1188,4.1198,4.1194,4.1198,4.1197,4.1188,4.1221,4.1226,4.125,4.1203,4.1305,4.1308,4.1311,4.135,4.1358,4.1364,0,0,0,0,0,4.1146,4.1183,4.1173,4.1179,4.1203,4.1227,4.123,4.122,4.12,4.1217,4.1215,4.1197,4.1245,4.1225,4.123,4.1255,4.1303,4.1307,4.1311,4.1347,4.1356,4.1364,0,0,0,0,0,0,4.1181,4.1183,4.1172,4.1212,4.122,4.1222,4.1243,4.123,4.1242,4.1238,4.1224,4.1225,4.1259,4.126,4.1238,4.1299,4.1271,4.1276,4.1296,4.1305,4.1312,4.131,4.1204,0,0,0,0,0,4.1194,4.1214,4.1214,4.1249,4.1254,4.1248,4.1258,4.125,4.1257,4.126,4.126,4.1267,4.1283,4.1294,4.131,4.1351,4.1351,4.1371,4.1378,4.1383,4.1387,4.1409,4.1418,4.1326,4.1326,4.1326,0,0,4.1219,4.1223,4.1236,4.1256,4.1261,4.1282,4.1251,4.1274,4.1289,4.1263,4.1292,4.1293,4.13,4.1337,4.1353,4.1339,4.1413,4.1388,4.1393,4.1394,4.1414,4.1423,4.143,4.1329,4.1328,4.1328,0,0,4.1276,4.1281,4.1311,4.1317,4.1326,4.1322,4.1329,4.1333,4.1333,4.1363,4.1344,4.1361,4.139,4.1396,4.1403,4.1463,4.1447,4.1469,4.1504,4.1525,4.1532,4.1538,4.1559,4.1567,4.1473,4.1473,4.1473,0,4.1306,4.1337,4.1327,4.1352,4.1361,4.134,4.1369,4.1376,4.1388,4.1395,4.1379,4.1416,4.1419,4.1456,4.1471,4.1478,4.1485,4.1467,4.1532,4.1538,4.1544,4.1564,4.1572,4.1476,4.1476,4.1475,4.1475,0,4.1374,4.1396,4.1419,4.1433,4.1445,4.1471,4.1465,4.1478,4.1469,4.1466,4.1497,4.1501,4.1516,4.1525,4.1515,4.1561,4.1552,4.1535,4.1506,4.1555,4.1573,4.1581,4.1479,4.1479,4.1478,4.1477,0,0,4.1451,4.1461,4.1469,4.1476,4.1484,4.1501,4.1527,4.1543,4.1554,4.1564,4.1585,4.1611,4.1595,4.1602,4.1594,4.1613,4.166,4.1593,4.1593,4.1604,4.1709,4.1721,4.173,4.165,4.1651,4.1652,4.1708,0,4.1507,4.1553,4.1545,4.1589,4.1609,4.159,4.1612,4.162,4.1619,4.1635,4.1633,4.1651,4.1629,4.1634,4.1652,4.165,4.168,4.1646,4.1668,4.1669,4.1665,4.174,4.1753,4.1805,4.1716,4.1717,4.1718,0,4.1578,4.1592,4.1638,4.1644,4.1652,4.1672,4.1687,4.1703,4.1711,4.1709,4.1718,4.1706,4.1731,4.1704,4.1738,4.1715,4.1724,4.1724,4.1726,4.1726,4.1695,4.1741,4.1822,4.1829,4.1729,4.1728,4.1727,0,4.1629,4.1659,4.169,4.1696,4.1705,4.1719,4.1723,4.173,4.174,4.1753,4.1759,4.1774,4.1782,4.1794,4.1786,4.1767,4.1821,4.1793,4.1819,4.1819,4.183,4.1829,4.1912,4.1838,4.1838,4.1838,4.1837,0,4.1691,4.172,4.1713,4.1733,4.1764,4.1755,4.1786,4.1788,4.1794,4.1813,4.1797,4.1815,4.1805,4.1821,4.1815,4.1844,4.1848,4.1846,4.1844,4.1847,4.1847,4.1851,4.1847,4.184,4.1839,4.1839,4.1839,0,4.1752,4.1749,4.1782,4.1788,4.179,4.1813,4.1817,4.1835,4.1833,4.1857,4.1862,4.1859,4.1878,4.1872,4.1892,4.1888,4.1925,4.1918,4.1922,4.192,4.1946,4.1943,4.2033,4.2044,4.1964,4.1965,4.1966,0,4.1791,4.1813,4.1822,4.1834,4.1839,4.1858,4.1869,4.1861,4.1873,4.1885,4.1901,4.1919,4.1932,4.1963,4.1962,4.1978,4.1971,4.2002,4.1973,4.1975,4.197,4.1968,4.197,4.2007,4.2008,4.2008,4.2009,0,4.1861,4.1859,4.1875,4.1892,4.1906,4.1918,4.1929,4.194,4.1933,4.1947,4.1966,4.1977,4.1998,4.2016,4.203,4.2033,4.202,4.2018,4.2025,4.2027,4.2028,4.2027,4.1936,4.2016,4.2015,4.2015,4.2014,4.2014,4.1911,4.193,4.1939,4.1958,4.1966,4.1977,4.1994,4.1995,4.2012,4.2029,4.2023,4.2046,4.2053,4.2071,4.2076,4.2093,4.2081,4.2091,4.2094,4.2096,4.2099,4.2027,4.2096,4.2096,4.2096,4.2095,4.2095,0,4.1979,4.1985,4.2003,4.2019,4.2034,4.2022,4.2034,4.2047,4.2067,4.2076,4.209,4.2113,4.213,4.2131,4.2147,4.2161,4.2155,4.2165,4.2163,4.2164,4.2109,4.2101,4.2169,4.2169,4.2169,4.2169,4.2169,4.2169,4.2016,4.2047,4.2046,4.208,4.2085,4.2108,4.2116,4.2125,4.2132,4.2159,4.2173,4.2175,4.218,4.2197,4.2212,4.2212,4.2218,4.223,4.2227,4.2175,4.2168,4.2161,4.2153,4.2232,4.2232,4.2281,4.2281,4.2282]}]]